This is the latest recevied weather packets stored in our database for station/object OK1FRN-6. If no packets are shown the sender has not sent any weather packets the latest 10 day(s).
| Time | Temp. | Humidity | Pressure | Rain* | Wind** | Luminosity | Snow |
|---|---|---|---|---|---|---|---|
| 1777840109 | 17.78° C | 38% | 1013.5 hPa | - | - | - | - |
| 1777839803 | 17.78° C | 37% | 1013.6 hPa | - | - | - | - |
| 1777839496 | 18.33° C | 37% | 1013.6 hPa | - | - | - | - |
| 1777839190 | 18.33° C | 37% | 1013.6 hPa | - | - | - | - |
| 1777837964 | 19.44° C | 35% | 1013.8 hPa | - | - | - | - |
| 1777837351 | 20° C | 35% | 1013.6 hPa | - | - | - | - |
| 1777837044 | 20° C | 34% | 1013.7 hPa | - | - | - | - |
| 1777836737 | 20.56° C | 34% | 1013.7 hPa | - | - | - | - |
| 1777836431 | 20.56° C | 33% | 1013.5 hPa | - | - | - | - |
| 1777836124 | 20.56° C | 33% | 1013.6 hPa | - | - | - | - |
| 1777835817 | 21.11° C | 33% | 1013.5 hPa | - | - | - | - |
| 1777834897 | 21.11° C | 33% | 1013.4 hPa | - | - | - | - |
| 1777833977 | 21.11° C | 33% | 1013.3 hPa | - | - | - | - |
| 1777833670 | 21.67° C | 32% | 1013.2 hPa | - | - | - | - |
| 1777833056 | 21.67° C | 32% | 1013 hPa | - | - | - | - |
| 1777831828 | 22.78° C | 30% | 1012.8 hPa | - | - | - | - |
| 1777830908 | 23.33° C | 28% | 1012.8 hPa | - | - | - | - |
| 1777826300 | 26.11° C | 20% | 1012.7 hPa | - | - | - | - |
| 1777825686 | 26.67° C | 20% | 1012.6 hPa | - | - | - | - |
| 1777823227 | 27.22° C | 19% | 1012.8 hPa | - | - | - | - |
| 1777822612 | 27.22° C | 18% | 1012.9 hPa | - | - | - | - |
| 1777822304 | 27.78° C | 19% | 1013 hPa | - | - | - | - |
| 1777821997 | 27.78° C | 18% | 1012.9 hPa | - | - | - | - |
| 1777821690 | 27.78° C | 19% | 1013 hPa | - | - | - | - |
| 1777820152 | 28.33° C | 18% | 1013.2 hPa | - | - | - | - |
* Rain since midnight (hover to see other rain measurements)
** Current wind speed in m/s (hover to see current wind gust speed)